TimeEST,TemperatureF,Dew PointF,Humidity,Sea Level PressureIn,VisibilityMPH,Wind Direction,Wind SpeedMPH,Gust SpeedMPH,PrecipitationIn,Events,Conditions,WindDirDegrees,DateUTC
12:15 AM,55.4,50.0,82,30.24,10.0,SSW,5.8,-,N/A,,Overcast,210,2013-11-22 05:15:00
12:35 AM,55.4,50.0,82,30.24,10.0,SSW,6.9,-,N/A,,Overcast,210,2013-11-22 05:35:00
12:55 AM,55.4,51.8,88,30.23,10.0,SSW,6.9,-,N/A,,Overcast,200,2013-11-22 05:55:00
1:15 AM,55.4,51.8,88,30.24,10.0,Calm,Calm,-,N/A,,Overcast,0,2013-11-22 06:15:00
1:35 AM,55.4,51.8,88,30.24,10.0,SSW,4.6,-,N/A,Rain,Light Rain,210,2013-11-22 06:35:00
1:55 AM,53.6,51.8,94,30.23,10.0,South,3.5,-,N/A,,Overcast,190,2013-11-22 06:55:00
2:15 AM,53.6,51.8,94,30.23,10.0,South,4.6,-,N/A,Rain,Light Rain,190,2013-11-22 07:15:00
2:35 AM,53.6,51.8,94,30.24,5.0,Calm,Calm,-,N/A,Rain,Rain,0,2013-11-22 07:35:00
2:55 AM,53.6,51.8,94,30.24,5.0,Calm,Calm,-,N/A,Rain,Rain,0,2013-11-22 07:55:00
3:15 AM,53.6,51.8,94,30.24,7.0,Calm,Calm,-,N/A,Rain,Rain,0,2013-11-22 08:15:00
3:35 AM,53.6,51.8,94,30.23,4.0,Calm,Calm,-,N/A,,Drizzle,0,2013-11-22 08:35:00
3:55 AM,51.8,51.8,100,30.23,7.0,Calm,Calm,-,N/A,,Overcast,0,2013-11-22 08:55:00
4:15 AM,51.8,51.8,100,30.23,7.0,Calm,Calm,-,N/A,,Overcast,0,2013-11-22 09:15:00
4:35 AM,51.8,51.8,100,30.23,5.0,Calm,Calm,-,N/A,,Overcast,0,2013-11-22 09:35:00
4:55 AM,51.8,51.8,100,30.23,5.0,Calm,Calm,-,N/A,,Overcast,0,2013-11-22 09:55:00
5:15 AM,51.8,51.8,100,30.23,3.0,Calm,Calm,-,N/A,Rain,Rain,0,2013-11-22 10:15:00
5:35 AM,53.6,53.6,100,30.23,5.0,Calm,Calm,-,N/A,Rain,Light Rain,0,2013-11-22 10:35:00
5:55 AM,53.6,53.6,100,30.23,4.0,Calm,Calm,-,N/A,Rain,Rain,0,2013-11-22 10:55:00
6:15 AM,53.6,53.6,100,30.23,2.5,South,3.5,-,N/A,Rain,Rain,170,2013-11-22 11:15:00
6:35 AM,53.6,53.6,100,30.23,3.0,South,3.5,-,N/A,Rain,Rain,190,2013-11-22 11:35:00
6:55 AM,53.6,53.6,100,30.23,4.0,South,4.6,-,N/A,,Overcast,190,2013-11-22 11:55:00
7:15 AM,53.6,53.6,100,30.24,5.0,SSW,6.9,-,N/A,,Overcast,200,2013-11-22 12:15:00
7:35 AM,53.6,53.6,100,30.24,2.5,SSW,6.9,-,N/A,,Drizzle,200,2013-11-22 12:35:00
7:55 AM,53.6,53.6,100,30.23,1.5,SSW,5.8,-,N/A,,Drizzle,210,2013-11-22 12:55:00
8:15 AM,53.6,53.6,100,30.23,2.0,SW,5.8,-,N/A,,Drizzle,220,2013-11-22 13:15:00
8:35 AM,53.6,53.6,100,30.23,2.0,SW,8.1,-,N/A,,Drizzle,230,2013-11-22 13:35:00
8:55 AM,53.6,53.6,100,30.23,1.8,SW,8.1,-,N/A,,Heavy Drizzle,220,2013-11-22 13:55:00
9:15 AM,55.4,55.4,100,30.23,2.0,SW,8.1,-,N/A,,Heavy Drizzle,220,2013-11-22 14:15:00
9:35 AM,55.4,55.4,100,30.23,2.0,SW,6.9,-,N/A,,Drizzle,220,2013-11-22 14:35:00
9:55 AM,55.4,55.4,100,30.24,1.5,SW,5.8,-,N/A,,Heavy Drizzle,220,2013-11-22 14:55:00
10:15 AM,55.4,55.4,100,30.25,1.8,SW,6.9,-,N/A,,Heavy Drizzle,230,2013-11-22 15:15:00
10:35 AM,55.4,55.4,100,30.25,2.0,WSW,4.6,-,N/A,,Heavy Drizzle,240,2013-11-22 15:35:00
10:55 AM,55.4,55.4,100,30.25,2.0,WSW,6.9,-,N/A,,Drizzle,240,2013-11-22 15:55:00
11:15 AM,55.4,55.4,100,30.25,2.5,WSW,5.8,-,N/A,,Drizzle,250,2013-11-22 16:15:00
11:35 AM,55.4,55.4,100,30.24,2.5,WSW,3.5,-,N/A,,Drizzle,250,2013-11-22 16:35:00
11:55 AM,55.4,55.4,100,30.23,4.0,West,6.9,-,N/A,,Light Drizzle,270,2013-11-22 16:55:00
12:15 PM,55.4,55.4,100,30.22,4.0,West,5.8,-,N/A,Rain,Rain,260,2013-11-22 17:15:00
12:35 PM,55.4,55.4,100,30.22,7.0,West,9.2,-,N/A,Rain,Light Rain,260,2013-11-22 17:35:00
12:55 PM,55.4,55.4,100,30.21,7.0,West,5.8,-,N/A,,Drizzle,260,2013-11-22 17:55:00
1:15 PM,55.4,55.4,100,30.21,7.0,West,6.9,-,N/A,Rain,Light Rain,270,2013-11-22 18:15:00
1:35 PM,55.4,55.4,100,30.20,5.0,NW,3.5,-,N/A,Rain,Rain,320,2013-11-22 18:35:00
1:55 PM,55.4,53.6,94,30.20,7.0,WNW,8.1,-,N/A,Rain,Rain,300,2013-11-22 18:55:00
2:15 PM,55.4,53.6,94,30.20,4.0,WNW,6.9,-,N/A,Rain,Light Rain,300,2013-11-22 19:15:00
2:35 PM,55.4,53.6,94,30.20,5.0,NW,8.1,-,N/A,,Heavy Drizzle,310,2013-11-22 19:35:00
2:55 PM,53.6,53.6,100,30.21,5.0,NW,15.0,20.7,N/A,Rain,Rain,320,2013-11-22 19:55:00
3:15 PM,51.8,51.8,100,30.22,3.0,NNW,12.7,-,N/A,Rain,Rain,340,2013-11-22 20:15:00
3:35 PM,51.8,51.8,100,30.23,5.0,NNW,11.5,-,N/A,Rain,Rain,330,2013-11-22 20:35:00
3:55 PM,51.8,51.8,100,30.24,4.0,NNW,6.9,-,N/A,Rain,Heavy Rain,330,2013-11-22 20:55:00
4:15 PM,50.0,50.0,100,30.24,4.0,NNW,10.4,16.1,N/A,Rain,Rain,340,2013-11-22 21:15:00
4:35 PM,50.0,50.0,100,30.25,5.0,NNW,9.2,-,N/A,Rain,Rain,340,2013-11-22 21:35:00
4:55 PM,50.0,50.0,100,30.25,7.0,NNW,8.1,-,N/A,Rain,Rain,340,2013-11-22 21:55:00
5:15 PM,50.0,48.2,94,30.26,7.0,North,15.0,18.4,N/A,Rain,Light Rain,350,2013-11-22 22:15:00
5:35 PM,48.2,46.4,93,30.27,10.0,North,10.4,17.3,N/A,,Overcast,350,2013-11-22 22:35:00
5:55 PM,48.2,46.4,93,30.27,10.0,North,11.5,-,N/A,,Overcast,350,2013-11-22 22:55:00
6:15 PM,46.4,46.4,100,30.27,10.0,North,15.0,21.9,N/A,,Overcast,360,2013-11-22 23:15:00
6:35 PM,46.4,44.6,93,30.30,7.0,North,17.3,24.2,N/A,,Overcast,360,2013-11-22 23:35:00
6:55 PM,46.4,44.6,93,30.31,7.0,North,16.1,19.6,N/A,,Overcast,350,2013-11-22 23:55:00
7:15 PM,44.6,44.6,100,30.32,5.0,North,12.7,17.3,N/A,,Overcast,350,2013-11-23 00:15:00
7:35 PM,44.6,42.8,93,30.32,5.0,North,11.5,-,N/A,,Overcast,350,2013-11-23 00:35:00
7:55 PM,44.6,42.8,93,30.31,5.0,North,6.9,-,N/A,,Overcast,360,2013-11-23 00:55:00
8:35 PM,44.6,41.0,87,30.33,7.0,North,15.0,18.4,N/A,,Overcast,350,2013-11-23 01:35:00
8:55 PM,42.8,41.0,93,30.32,7.0,North,11.5,-,N/A,,Overcast,360,2013-11-23 01:55:00
9:15 PM,42.8,41.0,93,30.35,7.0,North,17.3,20.7,N/A,,Overcast,360,2013-11-23 02:15:00
9:35 PM,42.8,41.0,93,30.34,10.0,North,9.2,18.4,N/A,,Overcast,360,2013-11-23 02:35:00
9:55 PM,42.8,39.2,87,30.35,10.0,North,10.4,-,N/A,,Overcast,360,2013-11-23 02:55:00
10:15 PM,42.8,39.2,87,30.35,10.0,North,12.7,-,N/A,,Overcast,360,2013-11-23 03:15:00
10:35 PM,41.0,37.4,87,30.36,10.0,North,13.8,17.3,N/A,,Overcast,360,2013-11-23 03:35:00
10:55 PM,41.0,37.4,87,30.36,10.0,NNE,13.8,-,N/A,,Overcast,20,2013-11-23 03:55:00
11:15 PM,41.0,33.8,76,30.36,10.0,North,13.8,24.2,N/A,,Overcast,10,2013-11-23 04:15:00
11:35 PM,39.2,33.8,81,30.35,10.0,NNE,10.4,-,N/A,,Overcast,20,2013-11-23 04:35:00
11:55 PM,37.4,33.8,87,30.36,10.0,NNE,8.1,-,N/A,,Scattered Clouds,30,2013-11-23 04:55:00